Time,TemperatureF,DewpointF,PressureIn,WindDirection,WindDirectionDegrees,WindSpeedMPH,WindSpeedGustMPH,Humidity,HourlyPrecipIn,Conditions,Clouds,dailyrainin,SoftwareType,DateUTC
2013-03-31 00:00:00,48.2,10.1,30.09,SW,225,0.0,0.0,21,0.00,,---,0.00,VWS V14.01,2013-03-31 04:00:00,
2013-03-31 00:05:00,48.0,11.0,30.06,SW,225,0.0,0.0,22,0.00,,---,0.00,VWS V14.01,2013-03-31 04:05:00,
2013-03-31 00:10:00,48.0,11.0,30.06,SW,225,0.0,0.0,22,0.00,,---,0.00,VWS V14.01,2013-03-31 04:10:00,
2013-03-31 00:15:00,48.0,11.0,30.06,SW,225,0.0,0.0,22,0.00,,---,0.00,VWS V14.01,2013-03-31 04:15:00,
2013-03-31 00:20:00,48.0,11.0,30.06,SW,225,0.0,0.0,22,0.00,,---,0.00,VWS V14.01,2013-03-31 04:20:00,
2013-03-31 00:25:00,48.0,11.0,30.06,SW,225,0.0,0.0,22,0.00,,---,0.00,VWS V14.01,2013-03-31 04:25:00,
2013-03-31 00:30:00,48.0,11.0,30.06,SW,225,0.0,3.1,22,0.00,,---,0.00,VWS V14.01,2013-03-31 04:30:00,
2013-03-31 00:35:00,48.0,7.7,30.06,SW,225,0.0,2.2,19,0.00,,---,0.00,VWS V14.01,2013-03-31 04:35:00,
2013-03-31 00:40:00,48.0,7.7,30.06,SW,225,0.0,0.0,19,0.00,,---,0.00,VWS V14.01,2013-03-31 04:40:00,
2013-03-31 00:45:00,47.7,7.4,30.06,SW,225,0.0,0.0,19,0.00,,---,0.00,VWS V14.01,2013-03-31 04:45:00,
2013-03-31 00:50:00,47.7,10.7,30.06,SW,225,0.0,0.0,22,0.00,,---,0.00,VWS V14.01,2013-03-31 04:50:00,
2013-03-31 00:55:00,47.7,7.4,30.06,SW,225,0.0,3.1,19,0.00,,---,0.00,VWS V14.01,2013-03-31 04:55:00,
2013-03-31 01:00:00,47.7,7.4,30.06,SW,225,2.2,3.1,19,0.00,,---,0.00,VWS V14.01,2013-03-31 05:00:00,
2013-03-31 01:05:00,47.7,7.4,30.06,SW,225,0.0,0.0,19,0.00,,---,0.00,VWS V14.01,2013-03-31 05:05:00,
2013-03-31 01:10:00,47.5,7.3,30.06,SW,225,0.0,0.0,19,0.00,,---,0.00,VWS V14.01,2013-03-31 05:10:00,
2013-03-31 01:15:00,47.5,7.3,30.06,SW,225,0.0,2.7,19,0.00,,---,0.00,VWS V14.01,2013-03-31 05:15:00,
2013-03-31 01:20:00,47.8,7.6,30.06,SW,225,0.0,2.2,19,0.00,,---,0.00,VWS V14.01,2013-03-31 05:20:00,
2013-03-31 01:25:00,47.7,7.4,30.06,SW,225,0.0,0.0,19,0.00,,---,0.00,VWS V14.01,2013-03-31 05:25:00,
2013-03-31 01:30:00,47.7,7.4,30.06,SW,225,0.0,2.2,19,0.00,,---,0.00,VWS V14.01,2013-03-31 05:30:00,
2013-03-31 01:35:00,47.5,7.3,30.06,SW,225,2.7,2.7,19,0.00,,---,0.00,VWS V14.01,2013-03-31 05:35:00,
2013-03-31 01:40:00,47.3,7.1,30.06,SW,225,0.0,0.0,19,0.00,,---,0.00,VWS V14.01,2013-03-31 05:40:00,
2013-03-31 01:45:00,47.3,7.1,30.06,SW,225,0.0,0.0,19,0.00,,---,0.00,VWS V14.01,2013-03-31 05:45:00,
2013-03-31 01:50:00,47.1,7.0,30.03,SW,225,0.0,0.0,19,0.00,,---,0.00,VWS V14.01,2013-03-31 05:50:00,
2013-03-31 01:55:00,47.1,7.0,30.03,SW,225,0.0,0.0,19,0.00,,---,0.00,VWS V14.01,2013-03-31 05:55:00,
2013-03-31 02:00:00,47.1,7.0,30.03,SW,225,0.0,2.2,19,0.00,,---,0.00,VWS V14.01,2013-03-31 06:00:00,
2013-03-31 02:05:00,47.1,7.0,30.06,SW,225,0.0,0.0,19,0.00,,---,0.00,VWS V14.01,2013-03-31 06:05:00,
2013-03-31 02:10:00,46.8,9.9,30.06,SW,225,0.0,0.0,22,0.00,,---,0.00,VWS V14.01,2013-03-31 06:10:00,
2013-03-31 02:15:00,46.8,6.7,30.06,SW,225,0.0,0.0,19,0.00,,---,0.00,VWS V14.01,2013-03-31 06:15:00,
2013-03-31 02:20:00,46.8,6.7,30.03,SW,225,0.0,0.0,19,0.00,,---,0.00,VWS V14.01,2013-03-31 06:20:00,
2013-03-31 02:25:00,46.8,9.9,30.03,SW,225,0.0,0.0,22,0.00,,---,0.00,VWS V14.01,2013-03-31 06:25:00,
2013-03-31 02:30:00,46.6,9.8,30.03,SW,225,0.0,0.0,22,0.00,,---,0.00,VWS V14.01,2013-03-31 06:30:00,
2013-03-31 02:35:00,46.6,9.8,30.03,SW,225,0.0,2.2,22,0.00,,---,0.00,VWS V14.01,2013-03-31 06:35:00,
2013-03-31 02:40:00,46.6,9.8,30.03,SW,225,0.0,0.0,22,0.00,,---,0.00,VWS V14.01,2013-03-31 06:40:00,
2013-03-31 02:45:00,46.6,9.8,30.03,SW,225,0.0,0.0,22,0.00,,---,0.00,VWS V14.01,2013-03-31 06:45:00,
2013-03-31 02:50:00,46.6,9.8,30.03,SW,225,0.0,0.0,22,0.00,,---,0.00,VWS V14.01,2013-03-31 06:50:00,
2013-03-31 02:55:00,46.6,9.8,30.03,SW,225,0.0,0.0,22,0.00,,---,0.00,VWS V14.01,2013-03-31 06:55:00,
2013-03-31 03:00:00,46.6,9.8,30.03,SW,225,0.0,2.2,22,0.00,,---,0.00,VWS V14.01,2013-03-31 07:00:00,
2013-03-31 03:05:00,46.9,10.1,30.03,SW,225,0.0,0.0,22,0.00,,---,0.00,VWS V14.01,2013-03-31 07:05:00,
2013-03-31 03:10:00,46.9,10.1,30.03,SW,225,0.0,0.0,22,0.00,,---,0.00,VWS V14.01,2013-03-31 07:10:00,
2013-03-31 03:15:00,46.9,10.1,30.03,SW,225,0.0,0.0,22,0.00,,---,0.00,VWS V14.01,2013-03-31 07:15:00,
2013-03-31 03:20:00,47.1,10.2,30.03,SW,225,0.0,0.0,22,0.00,,---,0.00,VWS V14.01,2013-03-31 07:20:00,
2013-03-31 03:25:00,47.1,10.2,30.03,SW,225,0.0,0.0,22,0.00,,---,0.00,VWS V14.01,2013-03-31 07:25:00,
2013-03-31 03:30:00,46.9,10.1,30.03,SW,225,0.0,0.0,22,0.00,,---,0.00,VWS V14.01,2013-03-31 07:30:00,
2013-03-31 03:35:00,47.1,10.2,30.00,SW,225,0.0,0.0,22,0.00,,---,0.00,VWS V14.01,2013-03-31 07:35:00,
2013-03-31 03:40:00,47.1,10.2,30.00,SW,225,0.0,0.0,22,0.00,,---,0.00,VWS V14.01,2013-03-31 07:40:00,
2013-03-31 03:45:00,46.9,12.1,30.00,SW,225,0.0,2.2,24,0.00,,---,0.00,VWS V14.01,2013-03-31 07:45:00,
2013-03-31 03:50:00,46.9,12.1,30.03,SW,225,0.0,0.0,24,0.00,,---,0.00,VWS V14.01,2013-03-31 07:50:00,
2013-03-31 03:55:00,46.8,11.9,30.03,SW,225,0.0,0.0,24,0.00,,---,0.00,VWS V14.01,2013-03-31 07:55:00,
2013-03-31 04:00:00,46.6,11.7,30.03,SW,225,0.0,0.0,24,0.00,,---,0.00,VWS V14.01,2013-03-31 08:00:00,
2013-03-31 04:05:00,46.4,11.6,30.00,SW,225,0.0,0.0,24,0.00,,---,0.00,VWS V14.01,2013-03-31 08:05:00,
2013-03-31 04:10:00,46.2,14.1,30.00,SW,225,0.0,0.0,27,0.00,,---,0.00,VWS V14.01,2013-03-31 08:10:00,
2013-03-31 04:15:00,46.0,13.9,30.00,SW,225,0.0,0.0,27,0.00,,---,0.00,VWS V14.01,2013-03-31 08:15:00,
2013-03-31 04:20:00,45.9,14.6,30.00,SW,225,0.0,0.0,28,0.00,,---,0.00,VWS V14.01,2013-03-31 08:20:00,
2013-03-31 04:25:00,45.5,14.3,30.00,SW,225,0.0,0.0,28,0.00,,---,0.00,VWS V14.01,2013-03-31 08:25:00,
2013-03-31 04:30:00,45.5,14.3,30.00,SW,225,0.0,0.0,28,0.00,,---,0.00,VWS V14.01,2013-03-31 08:30:00,
2013-03-31 04:35:00,45.3,14.1,30.00,SW,225,0.0,0.0,28,0.00,,---,0.00,VWS V14.01,2013-03-31 08:35:00,
2013-03-31 04:40:00,45.0,13.8,30.00,SW,225,0.0,0.0,28,0.00,,---,0.00,VWS V14.01,2013-03-31 08:40:00,
2013-03-31 04:45:00,44.8,13.7,30.00,SW,225,0.0,0.0,28,0.00,,---,0.00,VWS V14.01,2013-03-31 08:45:00,
2013-03-31 04:50:00,44.8,13.7,30.00,SW,225,0.0,0.0,28,0.00,,---,0.00,VWS V14.01,2013-03-31 08:50:00,
2013-03-31 04:55:00,44.8,13.7,30.00,SW,225,0.0,0.0,28,0.00,,---,0.00,VWS V14.01,2013-03-31 08:55:00,
2013-03-31 05:00:00,44.6,14.3,30.00,SW,225,0.0,0.0,29,0.00,,---,0.00,VWS V14.01,2013-03-31 09:00:00,
2013-03-31 05:05:00,44.6,14.3,30.00,SW,225,0.0,0.0,29,0.00,,---,0.00,VWS V14.01,2013-03-31 09:05:00,
2013-03-31 05:10:00,44.6,15.1,30.00,SW,225,0.0,0.0,30,0.00,,---,0.00,VWS V14.01,2013-03-31 09:10:00,
2013-03-31 05:15:00,44.8,15.3,30.00,SW,225,0.0,0.0,30,0.00,,---,0.00,VWS V14.01,2013-03-31 09:15:00,
2013-03-31 05:20:00,44.8,16.0,29.97,SW,225,0.0,0.0,31,0.00,,---,0.00,VWS V14.01,2013-03-31 09:20:00,
2013-03-31 05:25:00,45.1,17.1,29.97,SW,225,0.0,0.0,32,0.00,,---,0.00,VWS V14.01,2013-03-31 09:25:00,
2013-03-31 05:30:00,45.3,17.9,29.97,SW,225,0.0,0.0,33,0.00,,---,0.00,VWS V14.01,2013-03-31 09:30:00,
2013-03-31 05:35:00,45.5,18.1,29.97,SW,225,0.0,0.0,33,0.00,,---,0.00,VWS V14.01,2013-03-31 09:35:00,
2013-03-31 05:40:00,45.7,18.2,29.97,SW,225,0.0,0.0,33,0.00,,---,0.00,VWS V14.01,2013-03-31 09:40:00,
2013-03-31 05:45:00,45.9,18.4,29.97,SW,225,0.0,2.7,33,0.00,,---,0.00,VWS V14.01,2013-03-31 09:45:00,
2013-03-31 05:50:00,46.2,18.0,29.97,SW,225,0.0,0.0,32,0.00,,---,0.00,VWS V14.01,2013-03-31 09:50:00,
2013-03-31 05:55:00,46.2,18.7,29.97,SW,225,0.0,0.0,33,0.00,,---,0.00,VWS V14.01,2013-03-31 09:55:00,
2013-03-31 06:00:00,46.4,18.2,29.97,SW,225,0.0,2.2,32,0.00,,---,0.00,VWS V14.01,2013-03-31 10:00:00,
2013-03-31 06:05:00,46.6,18.3,29.97,SW,225,0.0,0.0,32,0.00,,---,0.00,VWS V14.01,2013-03-31 10:05:00,
2013-03-31 06:10:00,46.4,18.9,29.97,SW,225,0.0,0.0,33,0.00,,---,0.00,VWS V14.01,2013-03-31 10:10:00,
2013-03-31 06:15:00,46.4,18.9,29.97,SW,225,0.0,0.0,33,0.00,,---,0.00,VWS V14.01,2013-03-31 10:15:00,
2013-03-31 06:20:00,46.4,19.6,29.97,SW,225,0.0,0.0,34,0.00,,---,0.00,VWS V14.01,2013-03-31 10:20:00,
2013-03-31 06:25:00,46.4,19.6,29.97,SW,225,0.0,0.0,34,0.00,,---,0.00,VWS V14.01,2013-03-31 10:25:00,
2013-03-31 06:30:00,46.4,20.2,29.97,SW,225,0.0,0.0,35,0.00,,---,0.00,VWS V14.01,2013-03-31 10:30:00,
2013-03-31 06:35:00,46.4,20.9,29.97,SW,225,0.0,0.0,36,0.00,,---,0.00,VWS V14.01,2013-03-31 10:35:00,
2013-03-31 06:40:00,46.6,21.7,29.97,SW,225,0.0,0.0,37,0.00,,---,0.00,VWS V14.01,2013-03-31 10:40:00,
2013-03-31 06:45:00,46.6,21.7,29.97,SW,225,0.0,0.0,37,0.00,,---,0.00,VWS V14.01,2013-03-31 10:45:00,
2013-03-31 06:50:00,46.6,21.7,29.97,SW,225,0.0,0.0,37,0.00,,---,0.00,VWS V14.01,2013-03-31 10:50:00,
2013-03-31 06:55:00,46.8,21.9,29.97,SW,225,0.0,0.0,37,0.00,,---,0.00,VWS V14.01,2013-03-31 10:55:00,
2013-03-31 07:00:00,46.8,22.5,29.97,SW,225,0.0,0.0,38,0.00,,---,0.00,VWS V14.01,2013-03-31 11:00:00,
2013-03-31 07:05:00,46.8,22.5,29.97,West,270,0.0,0.0,38,0.00,,---,0.00,VWS V14.01,2013-03-31 11:05:00,
2013-03-31 07:10:00,46.9,22.7,29.97,West,270,0.0,0.0,38,0.00,,---,0.00,VWS V14.01,2013-03-31 11:10:00,
2013-03-31 07:15:00,46.9,22.7,29.97,West,270,0.0,0.0,38,0.00,,---,0.00,VWS V14.01,2013-03-31 11:15:00,
2013-03-31 07:20:00,46.9,23.3,29.97,West,270,0.0,0.0,39,0.00,,---,0.00,VWS V14.01,2013-03-31 11:20:00,
2013-03-31 07:25:00,46.9,23.3,29.97,West,270,0.0,0.0,39,0.00,,---,0.00,VWS V14.01,2013-03-31 11:25:00,
2013-03-31 07:30:00,46.9,23.3,29.97,West,270,0.0,0.0,39,0.00,,---,0.00,VWS V14.01,2013-03-31 11:30:00,
2013-03-31 07:35:00,46.9,23.3,29.97,West,270,0.0,0.0,39,0.00,,---,0.00,VWS V14.01,2013-03-31 11:35:00,
2013-03-31 07:40:00,46.9,23.3,29.97,West,270,0.0,0.0,39,0.00,,---,0.00,VWS V14.01,2013-03-31 11:40:00,
2013-03-31 07:45:00,46.9,23.3,29.97,West,270,0.0,0.0,39,0.00,,---,0.00,VWS V14.01,2013-03-31 11:45:00,
2013-03-31 07:50:00,46.9,23.3,29.97,West,270,0.0,0.0,39,0.00,,---,0.00,VWS V14.01,2013-03-31 11:50:00,
2013-03-31 07:55:00,47.1,23.5,29.97,West,270,0.0,0.0,39,0.00,,---,0.00,VWS V14.01,2013-03-31 11:55:00,
2013-03-31 08:00:00,47.1,23.5,29.97,West,270,0.0,0.0,39,0.00,,---,0.00,VWS V14.01,2013-03-31 12:00:00,
2013-03-31 08:05:00,47.3,23.6,29.97,West,270,0.0,0.0,39,0.00,,---,0.00,VWS V14.01,2013-03-31 12:05:00,
2013-03-31 08:10:00,47.7,23.9,29.97,West,270,0.0,0.0,39,0.00,,---,0.00,VWS V14.01,2013-03-31 12:10:00,
2013-03-31 08:15:00,47.8,24.1,29.97,West,270,0.0,0.0,39,0.00,,---,0.00,VWS V14.01,2013-03-31 12:15:00,
2013-03-31 08:20:00,48.0,24.3,29.97,West,270,2.2,2.2,39,0.00,,---,0.00,VWS V14.01,2013-03-31 12:20:00,
2013-03-31 08:25:00,48.2,23.8,29.97,West,270,0.0,0.0,38,0.00,,---,0.00,VWS V14.01,2013-03-31 12:25:00,
2013-03-31 08:30:00,48.4,24.0,29.97,West,270,0.0,0.0,38,0.00,,---,0.00,VWS V14.01,2013-03-31 12:30:00,
2013-03-31 08:35:00,48.6,24.1,29.97,West,270,0.0,0.0,38,0.00,,---,0.00,VWS V14.01,2013-03-31 12:35:00,
2013-03-31 08:40:00,48.6,24.1,29.97,West,270,0.0,0.0,38,0.00,,---,0.00,VWS V14.01,2013-03-31 12:40:00,
2013-03-31 08:45:00,48.7,24.3,29.97,West,270,0.0,0.0,38,0.00,,---,0.00,VWS V14.01,2013-03-31 12:45:00,
2013-03-31 08:50:00,48.7,24.3,29.97,West,270,0.0,0.0,38,0.00,,---,0.00,VWS V14.01,2013-03-31 12:50:00,
2013-03-31 08:55:00,49.1,25.2,29.97,West,270,0.0,0.0,39,0.00,,---,0.00,VWS V14.01,2013-03-31 12:55:00,
2013-03-31 09:00:00,49.3,26.0,29.97,West,270,2.2,2.2,40,0.00,,---,0.00,VWS V14.01,2013-03-31 13:00:00,
2013-03-31 09:05:00,49.3,27.2,29.97,West,270,0.0,0.0,42,0.00,,---,0.00,VWS V14.01,2013-03-31 13:05:00,
2013-03-31 09:10:00,49.1,28.1,29.97,West,270,0.0,0.0,44,0.00,,---,0.00,VWS V14.01,2013-03-31 13:10:00,
2013-03-31 09:15:00,49.1,29.8,29.97,West,270,0.0,0.0,47,0.00,,---,0.00,VWS V14.01,2013-03-31 13:15:00,
2013-03-31 09:20:00,48.9,30.6,29.97,West,270,0.0,0.0,49,0.00,,---,0.00,VWS V14.01,2013-03-31 13:20:00,
2013-03-31 09:25:00,48.9,31.6,29.97,West,270,0.0,0.0,51,0.00,,---,0.00,VWS V14.01,2013-03-31 13:25:00,
2013-03-31 09:30:00,48.7,33.3,29.97,West,270,0.0,2.2,55,0.00,,---,0.00,VWS V14.01,2013-03-31 13:30:00,
2013-03-31 09:35:00,48.4,35.6,29.97,West,270,0.0,0.0,61,0.00,,---,0.00,VWS V14.01,2013-03-31 13:35:00,
2013-03-31 09:40:00,48.2,37.0,29.97,West,270,0.0,0.0,65,0.00,,---,0.00,VWS V14.01,2013-03-31 13:40:00,
2013-03-31 16:15:00,55.0,53.6,29.76,West,270,0.0,0.0,95,0.00,,---,0.00,VWS V14.01,2013-03-31 20:15:00,
2013-03-31 16:20:00,55.2,53.8,29.76,West,270,0.0,0.0,95,0.00,,---,0.16,VWS V14.01,2013-03-31 20:20:00,
2013-03-31 16:25:00,55.4,53.7,29.76,West,270,0.0,0.0,94,0.00,,---,0.16,VWS V14.01,2013-03-31 20:25:00,
2013-03-31 16:30:00,55.8,54.1,29.76,West,270,0.0,0.0,94,0.00,,---,0.16,VWS V14.01,2013-03-31 20:30:00,
2013-03-31 16:35:00,56.1,54.1,29.76,West,270,0.0,0.0,93,0.00,,---,0.16,VWS V14.01,2013-03-31 20:35:00,
2013-03-31 16:40:00,56.1,53.8,29.76,West,270,0.0,0.0,92,0.00,,---,0.16,VWS V14.01,2013-03-31 20:40:00,
2013-03-31 16:45:00,56.3,53.4,29.76,West,270,0.0,0.0,90,0.00,,---,0.16,VWS V14.01,2013-03-31 20:45:00,
2013-03-31 16:50:00,56.3,52.8,29.76,West,270,0.0,0.0,88,0.00,,---,0.16,VWS V14.01,2013-03-31 20:50:00,
2013-03-31 16:55:00,56.3,52.5,29.76,West,270,0.0,0.0,87,0.00,,---,0.16,VWS V14.01,2013-03-31 20:55:00,
2013-03-31 17:00:00,56.5,52.3,29.76,West,270,0.0,0.0,86,0.00,,---,0.16,VWS V14.01,2013-03-31 21:00:00,
2013-03-31 17:05:00,56.7,52.2,29.76,West,270,0.0,0.0,85,0.26,,---,0.42,VWS V14.01,2013-03-31 21:05:00,
2013-03-31 17:10:00,56.8,52.4,29.76,West,270,0.0,0.0,85,0.26,,---,0.42,VWS V14.01,2013-03-31 21:10:00,
2013-03-31 17:15:00,57.0,52.2,29.76,West,270,0.0,0.0,84,0.26,,---,0.42,VWS V14.01,2013-03-31 21:15:00,
2013-03-31 17:20:00,57.2,51.8,29.76,West,270,0.0,0.0,82,0.26,,---,0.42,VWS V14.01,2013-03-31 21:20:00,
2013-03-31 17:25:00,57.2,51.4,29.76,West,270,0.0,0.0,81,0.26,,---,0.42,VWS V14.01,2013-03-31 21:25:00,
2013-03-31 17:30:00,57.4,51.3,29.76,West,270,0.0,0.0,80,0.26,,---,0.42,VWS V14.01,2013-03-31 21:30:00,
2013-03-31 17:35:00,57.4,50.9,29.76,West,270,0.0,0.0,79,0.26,,---,0.42,VWS V14.01,2013-03-31 21:35:00,
2013-03-31 17:40:00,57.2,50.4,29.76,West,270,0.0,0.0,78,0.26,,---,0.42,VWS V14.01,2013-03-31 21:40:00,
2013-03-31 17:45:00,57.2,50.8,29.76,West,270,0.0,0.0,79,0.26,,---,0.42,VWS V14.01,2013-03-31 21:45:00,
2013-03-31 17:50:00,57.0,50.6,29.76,West,270,0.0,0.0,79,0.26,,---,0.42,VWS V14.01,2013-03-31 21:50:00,
2013-03-31 17:55:00,57.0,50.6,29.76,West,270,0.0,0.0,79,0.26,,---,0.42,VWS V14.01,2013-03-31 21:55:00,
2013-03-31 18:00:00,57.0,50.2,29.76,West,270,0.0,0.0,78,0.26,,---,0.42,VWS V14.01,2013-03-31 22:00:00,
2013-03-31 18:17:00,57.0,49.9,29.74,West,270,0.0,0.0,77,0.00,,---,0.42,VWS V14.01,2013-03-31 22:17:00,
2013-03-31 18:20:00,57.0,49.9,29.74,West,270,0.0,0.0,77,0.26,,---,0.42,VWS V14.01,2013-03-31 22:20:00,
2013-03-31 18:22:00,56.8,49.7,29.74,West,270,0.0,0.0,77,0.00,,---,0.42,VWS V14.01,2013-03-31 22:22:00,
2013-03-31 18:34:00,56.8,49.7,29.76,West,270,0.0,0.0,77,0.00,,---,0.42,VWS V14.01,2013-03-31 22:34:00,
2013-03-31 18:35:00,56.7,49.5,29.76,West,270,0.0,0.0,77,0.00,,---,0.42,VWS V14.01,2013-03-31 22:35:00,
2013-03-31 18:39:00,56.7,49.5,29.76,West,270,0.0,0.0,77,0.00,,---,0.42,VWS V14.01,2013-03-31 22:39:00,
2013-03-31 18:46:00,56.5,49.4,29.76,West,270,0.0,0.0,77,0.00,,---,0.42,VWS V14.01,2013-03-31 22:46:00,
2013-03-31 18:50:00,56.3,49.2,29.74,West,270,0.0,0.0,77,0.00,,---,0.42,VWS V14.01,2013-03-31 22:50:00,
2013-03-31 18:55:00,56.1,49.4,29.74,West,270,0.0,0.0,78,0.00,,---,0.42,VWS V14.01,2013-03-31 22:55:00,
2013-03-31 19:00:00,55.9,49.2,29.74,West,270,0.0,0.0,78,0.00,,---,0.42,VWS V14.01,2013-03-31 23:00:00,
2013-03-31 19:06:00,55.9,49.2,29.74,West,270,0.0,0.0,78,0.00,,---,0.42,VWS V14.01,2013-03-31 23:06:00,
2013-03-31 19:10:00,55.8,49.4,29.74,West,270,0.0,0.0,79,0.00,,---,0.42,VWS V14.01,2013-03-31 23:10:00,
2013-03-31 19:15:00,55.6,49.2,29.74,West,270,0.0,0.0,79,0.00,,---,0.42,VWS V14.01,2013-03-31 23:15:00,
2013-03-31 19:21:00,55.2,49.2,29.74,West,270,0.0,0.0,80,0.00,,---,0.42,VWS V14.01,2013-03-31 23:21:00,
2013-03-31 19:26:00,55.0,49.3,29.74,West,270,0.0,0.0,81,0.00,,---,0.42,VWS V14.01,2013-03-31 23:26:00,
2013-03-31 19:30:00,54.9,49.2,29.74,West,270,0.0,0.0,81,0.00,,---,0.42,VWS V14.01,2013-03-31 23:30:00,
2013-03-31 19:35:00,54.7,49.3,29.74,West,270,0.0,0.0,82,0.00,,---,0.42,VWS V14.01,2013-03-31 23:35:00,
2013-03-31 19:40:00,54.3,49.0,29.74,West,270,0.0,0.0,82,0.00,,---,0.42,VWS V14.01,2013-03-31 23:40:00,
2013-03-31 19:46:00,54.1,49.1,29.74,West,270,0.0,0.0,83,0.00,,---,0.42,VWS V14.01,2013-03-31 23:46:00,
2013-03-31 19:51:00,53.8,49.1,29.74,West,270,0.0,0.0,84,0.00,,---,0.42,VWS V14.01,2013-03-31 23:51:00,
2013-03-31 19:56:00,53.6,49.2,29.74,West,270,0.0,0.0,85,0.00,,---,0.42,VWS V14.01,2013-03-31 23:56:00,
2013-03-31 20:01:00,53.4,49.0,29.74,West,270,0.0,0.0,85,0.00,,---,0.42,VWS V14.01,2013-04-01 00:01:00,
2013-03-31 20:06:00,53.2,49.2,29.71,West,270,0.0,0.0,86,0.00,,---,0.42,VWS V14.01,2013-04-01 00:06:00,
2013-03-31 20:10:00,53.1,49.3,29.71,West,270,0.0,0.0,87,0.00,,---,0.42,VWS V14.01,2013-04-01 00:10:00,
2013-03-31 20:16:00,53.1,49.6,29.71,West,270,0.0,0.0,88,0.00,,---,0.42,VWS V14.01,2013-04-01 00:16:00,
2013-03-31 20:21:00,53.1,49.9,29.74,West,270,0.0,0.0,89,0.00,,---,0.42,VWS V14.01,2013-04-01 00:21:00,
2013-03-31 20:26:00,52.9,50.0,29.74,West,270,0.0,0.0,90,0.00,,---,0.42,VWS V14.01,2013-04-01 00:26:00,
2013-03-31 20:31:00,52.7,50.2,29.74,West,270,0.0,0.0,91,0.00,,---,0.42,VWS V14.01,2013-04-01 00:31:00,
2013-03-31 20:36:00,52.9,50.6,29.74,West,270,0.0,0.0,92,0.00,,---,0.42,VWS V14.01,2013-04-01 00:36:00,
2013-03-31 20:41:00,52.7,50.7,29.74,West,270,0.0,0.0,93,0.00,,---,0.42,VWS V14.01,2013-04-01 00:41:00,
2013-03-31 20:46:00,52.5,50.6,29.74,West,270,0.0,0.0,93,0.00,,---,0.42,VWS V14.01,2013-04-01 00:46:00,
2013-03-31 20:51:00,52.3,50.7,29.74,West,270,0.0,0.0,94,0.00,,---,0.42,VWS V14.01,2013-04-01 00:51:00,
2013-03-31 20:56:00,52.2,50.5,29.74,West,270,0.0,0.0,94,0.00,,---,0.42,VWS V14.01,2013-04-01 00:56:00,
2013-03-31 21:00:00,51.8,50.1,29.74,West,270,0.0,0.0,94,0.00,,---,0.42,VWS V14.01,2013-04-01 01:00:00,
2013-03-31 21:05:00,51.6,50.2,29.74,West,270,0.0,0.0,95,0.00,,---,0.42,VWS V14.01,2013-04-01 01:05:00,
2013-03-31 21:10:00,51.3,49.9,29.74,West,270,0.0,0.0,95,0.00,,---,0.42,VWS V14.01,2013-04-01 01:10:00,
2013-03-31 21:16:00,50.9,49.5,29.74,West,270,0.0,0.0,95,0.00,,---,0.42,VWS V14.01,2013-04-01 01:16:00,
2013-03-31 21:21:00,50.5,49.2,29.74,West,270,0.0,0.0,95,0.00,,---,0.42,VWS V14.01,2013-04-01 01:21:00,
2013-03-31 21:26:00,50.4,49.0,29.74,West,270,0.0,0.0,95,0.00,,---,0.42,VWS V14.01,2013-04-01 01:26:00,
2013-03-31 21:31:00,50.2,49.1,29.74,West,270,0.0,0.0,96,0.00,,---,0.42,VWS V14.01,2013-04-01 01:31:00,
2013-03-31 21:36:00,50.0,48.9,29.76,West,270,0.0,0.0,96,0.00,,---,0.42,VWS V14.01,2013-04-01 01:36:00,
2013-03-31 21:41:00,49.8,48.7,29.76,West,270,0.0,0.0,96,0.00,,---,0.42,VWS V14.01,2013-04-01 01:41:00,
2013-03-31 21:46:00,49.6,48.8,29.76,West,270,0.0,0.0,97,0.00,,---,0.42,VWS V14.01,2013-04-01 01:46:00,
2013-03-31 21:51:00,50.0,49.2,29.76,West,270,0.0,0.0,97,0.00,,---,0.42,VWS V14.01,2013-04-01 01:51:00,
2013-03-31 21:56:00,49.8,49.3,29.76,West,270,0.0,0.0,98,0.00,,---,0.42,VWS V14.01,2013-04-01 01:56:00,
2013-03-31 22:01:00,49.8,49.3,29.76,West,270,0.0,0.0,98,0.00,,---,0.42,VWS V14.01,2013-04-01 02:01:00,
2013-03-31 22:06:00,49.6,49.1,29.76,West,270,0.0,0.0,98,0.00,,---,0.42,VWS V14.01,2013-04-01 02:06:00,
2013-03-31 22:11:00,49.6,49.1,29.76,West,270,0.0,0.0,98,0.00,,---,0.42,VWS V14.01,2013-04-01 02:11:00,
2013-03-31 22:16:00,49.6,49.1,29.76,West,270,0.0,0.0,98,0.00,,---,0.42,VWS V14.01,2013-04-01 02:16:00,
2013-03-31 22:21:00,49.6,49.1,29.76,West,270,0.0,0.0,98,0.00,,---,0.42,VWS V14.01,2013-04-01 02:21:00,
2013-03-31 22:26:00,49.5,48.9,29.76,West,270,0.0,0.0,98,0.00,,---,0.42,VWS V14.01,2013-04-01 02:26:00,
2013-03-31 22:31:00,49.3,48.7,29.76,West,270,0.0,0.0,98,0.00,,---,0.42,VWS V14.01,2013-04-01 02:31:00,
2013-03-31 22:36:00,49.1,48.6,29.76,West,270,0.0,0.0,98,0.00,,---,0.42,VWS V14.01,2013-04-01 02:36:00,
2013-03-31 22:41:00,48.7,48.2,29.76,West,270,0.0,0.0,98,0.00,,---,0.42,VWS V14.01,2013-04-01 02:41:00,
2013-03-31 22:46:00,48.6,48.0,29.76,West,270,0.0,0.0,98,0.00,,---,0.42,VWS V14.01,2013-04-01 02:46:00,
2013-03-31 22:51:00,48.4,47.8,29.76,West,270,0.0,0.0,98,0.00,,---,0.42,VWS V14.01,2013-04-01 02:51:00,
2013-03-31 22:56:00,48.0,47.5,29.76,West,270,0.0,0.0,98,0.00,,---,0.42,VWS V14.01,2013-04-01 02:56:00,
2013-03-31 23:01:00,47.8,47.3,29.76,West,270,0.0,0.0,98,0.00,,---,0.42,VWS V14.01,2013-04-01 03:01:00,
2013-03-31 23:06:00,47.5,47.0,29.76,West,270,0.0,0.0,98,0.00,,---,0.42,VWS V14.01,2013-04-01 03:06:00,
2013-03-31 23:11:00,47.3,46.8,29.76,West,270,0.0,0.0,98,0.00,,---,0.42,VWS V14.01,2013-04-01 03:11:00,
2013-03-31 23:16:00,47.1,46.6,29.76,West,270,0.0,0.0,98,0.00,,---,0.42,VWS V14.01,2013-04-01 03:16:00,
2013-03-31 23:21:00,46.9,46.4,29.76,West,270,0.0,0.0,98,0.00,,---,0.42,VWS V14.01,2013-04-01 03:21:00,
2013-03-31 23:26:00,46.6,46.0,29.76,West,270,0.0,0.0,98,0.00,,---,0.42,VWS V14.01,2013-04-01 03:26:00,
2013-03-31 23:31:00,46.4,45.9,29.76,West,270,0.0,0.0,98,0.00,,---,0.42,VWS V14.01,2013-04-01 03:31:00,
2013-03-31 23:36:00,46.2,45.7,29.76,West,270,0.0,0.0,98,0.00,,---,0.42,VWS V14.01,2013-04-01 03:36:00,
2013-03-31 23:41:00,46.0,45.5,29.76,West,270,0.0,0.0,98,0.00,,---,0.42,VWS V14.01,2013-04-01 03:41:00,
2013-03-31 23:46:00,45.9,45.3,29.76,West,270,0.0,0.0,98,0.00,,---,0.42,VWS V14.01,2013-04-01 03:46:00,
2013-03-31 23:51:00,45.7,45.2,29.74,West,270,0.0,0.0,98,0.00,,---,0.42,VWS V14.01,2013-04-01 03:51:00,
2013-03-31 23:56:00,45.7,45.2,29.74,West,270,0.0,0.0,98,0.00,,---,0.42,VWS V14.01,2013-04-01 03:56:00,